Temp
16 17 18 18 18 19 19 19 19 19 19 19 19 18 18 19 18 18 18 18 18 18 18 18 18 18 17 18 17 17 17 17 18 18 18 17 18 18 18 17 17 16 17
17 17 18 18 18 19 19 18 18 18 18 18 18 18 18 18 18 17 18 18 18 17 18 18 18 18 18 18 17 17 17 17 18 18 18 17 17 18 17 17 16 17 17
17 17 17 18 18 18 19 18 18 18 18 17 18 18 17 17 17 18 18 18 17 17 18 17 17 17 18 17 17 17 17 17 18 17 17 17 17 17 17 17 17 17 17
18 18 18 17 18 19 19 18 18 18 18 18 17 17 17 17 18 18 18 18 17 17 17 17 17 17 17 18 17 17 17 17 18 18 17 17 17 17 17 17 17 17 17
18 18 18 17 18 19 18 18 18 18 18 18 17 17 17 18 17 18 18 18 17 17 17 18 17 17 17 17 17 17 17 17 17 17 17 17 17 17 17 17 17 17 17
18 18 18 17 19 19 18 18 18 18 18 17 17 17 17 17 18 18 18 17 17 17 17 17 17 17 17 17 16 17 17 17 17 18 17 17 17 17 17 17 17 17 17
18 18 18 18 19 19 18 18 18 17 18 18 17 17 18 17 17 17 17 18 18 17 17 17 17 17 17 17 17 17 17 17 17 18 18 17 17 17 17 16 17 16 16
19 19 18 18 19 19 18 18 18 18 18 18 18 18 18 17 18 18 18 18 17 17 17 17 17 17 17 17 17 17 17 18 18 17 17 17 17 17 17 16 16 16 16
19 19 18 19 18 19 19 19 18 18 18 18 18 18 18 18 18 18 18 18 17 17 17 17 17 17 17 17 17 17 17 17 18 18 17 17 17 17 16 17 16 16 16
18 19 19 19 19 19 18 19 18 18 19 18 18 18 18 18 18 18 17 18 18 17 17 17 17 17 17 17 17 17 17 17 17 18 18 17 16 17 16 17 17 17 17
18 18 18 19 19 19 19 19 18 18 19 19 18 18 18 19 18 18 18 18 17 17 18 18 18 18 18 18 18 17 17 17 17 17 17 16 17 17 17 17 16 17 17
17 18 18 19 19 19 19 19 18 19 19 19 19 19 19 18 18 18 18 18 18 18 17 18 18 18 18 18 18 18 18 17 17 17 17 16 16 16 17 16 17 16 16
19 18 19 19 19 19 19 19 19 19 19 19 19 19 19 19 18 18 18 18 18 18 18 18 18 18 18 18 18 18 18 17 17 17 17 16 17 17 17 17 17 16 16
19 19 19 19 20 19 19 19 19 19 19 19 19 19 19 19 19 18 18 18 18 18 18 18 18 19 18 18 18 18 18 18 17 17 17 17 17 17 17 17 16 17 17
19 19 19 20 20 19 19 19 19 19 19 19 19 19 19 19 19 19 18 18 18 18 18 18 18 19 19 19 19 18 18 18 17 17 17 17 17 17 17 17 17 17 17
20 19 20 20 20 20 19 19 19 19 19 19 19 19 19 19 19 19 18 18 18 18 18 18 18 19 19 19 19 19 18 18 18 17 17 17 17 17 17 17 17 17 17
20 20 20 20 20 20 20 19 19 19 19 19 19 19 19 19 19 19 19 18 18 18 18 18 18 19 19 19 19 19 18 18 18 18 17 17 17 16 17 17 17 17 16
20 20 20 20 20 20 20 20 19 19 19 19 19 19 19 19 19 19 18 19 19 18 18 18 18 19 19 19 19 19 18 18 18 18 18 17 17 17 17 16 16 16 16
20 20 20 20 21 21 20 20 19 19 19 19 19 19 19 19 19 19 19 19 19 19 18 18 19 19 18 19 19 19 18 18 18 18 18 18 17 17 17 17 16 16 16
20 20 20 21 21 21 20 19 19 19 19 20 19 19 19 19 19 19 19 19 19 19 19 19 19 19 19 19 19 19 18 18 18 18 18 18 17 17 17 17 17 17 17
20 20 20 20 21 21 20 20 19 19 19 20 20 19 19 19 19 19 19 19 19 19 19 19 19 19 19 19 19 19 19 18 18 18 18 18 17 17 17 17 17 17 17
20 20 20 20 21 21 20 20 20 20 19 19 20 20 19 19 19 19 19 19 19 19 19 19 19 19 19 19 19 19 19 19 19 19 18 18 18 18 18 17 17 17 17
20 20 20 20 21 21 20 20 20 19 19 19 19 20 20 19 19 19 19 19 19 19 19 19 19 19 19 19 19 19 19 19 19 19 19 18 18 18 18 18 18 17 17
20 20 20 20 21 20 20 20 20 20 20 19 19 20 20 20 19 19 19 19 19 19 19 19 19 19 19 19 19 19 19 20 19 19 19 19 18 18 18 18 18 18 18
20 20 20 20 20 21 20 20 20 20 20 20 19 19 20 19 19 19 19 19 19 19 19 19 18 19 19 19 19 19 19 20 20 20 20 19 19 19 19 18 18 18 18
19 20 20 20 21 21 21 20 20 20 20 20 20 20 20 20 20 19 19 19 19 19 19 19 19 19 19 19 19 19 19 20 20 20 20 20 20 20 19 19 19 18 18
Height
1538 1540 1543 1544 1546 1547 1549 1551 1553 1554 1555 1556 1558 1559 1561 1562 1564 1565 1565 1566 1566 1567 1567 1567 1567 1567 1567 1567 1568 1570 1571 1572 1573 1574 1575 1575 1576 1577 1578 1578 1579 1579 1580
1538 1542 1545 1547 1548 1549 1551 1553 1554 1555 1557 1558 1559 1561 1563 1564 1565 1566 1567 1567 1569 1569 1568 1568 1569 1569 1568 1569 1569 1570 1572 1573 1574 1575 1576 1577 1578 1578 1580 1580 1581 1581 1582
1539 1543 1546 1549 1550 1552 1553 1555 1556 1557 1559 1560 1561 1563 1565 1566 1567 1568 1569 1569 1571 1571 1570 1571 1571 1571 1570 1571 1571 1573 1574 1574 1576 1577 1578 1579 1580 1581 1582 1583 1583 1584 1585
1541 1545 1548 1551 1552 1554 1556 1558 1559 1560 1562 1563 1564 1566 1567 1568 1570 1570 1571 1571 1573 1573 1573 1573 1573 1573 1573 1574 1574 1575 1576 1577 1578 1579 1580 1581 1583 1584 1585 1585 1586 1587 1588
1543 1547 1550 1553 1554 1556 1559 1560 1562 1563 1564 1565 1566 1568 1569 1570 1571 1572 1573 1574 1573 1574 1574 1575 1575 1575 1576 1577 1577 1578 1579 1579 1580 1581 1582 1584 1586 1586 1587 1587 1588 1589 1590
1545 1549 1552 1555 1557 1559 1561 1562 1564 1565 1566 1567 1569 1569 1571 1572 1573 1574 1575 1576 1576 1576 1576 1577 1577 1578 1578 1579 1580 1580 1581 1582 1583 1584 1585 1586 1587 1589 1589 1590 1591 1591 1592
1546 1550 1553 1557 1559 1561 1563 1564 1566 1568 1569 1570 1571 1572 1574 1575 1577 1577 1577 1578 1578 1578 1578 1579 1579 1581 1581 1582 1583 1583 1584 1585 1586 1586 1587 1588 1590 1591 1592 1593 1593 1594 1595
1547 1551 1555 1558 1561 1563 1564 1566 1568 1569 1571 1573 1575 1575 1576 1578 1579 1579 1580 1580 1580 1580 1580 1581 1582 1583 1584 1585 1586 1586 1587 1587 1588 1589 1590 1591 1593 1593 1594 1595 1596 1596 1597
1550 1553 1556 1559 1562 1564 1566 1568 1569 1571 1573 1575 1577 1578 1579 1580 1581 1582 1583 1583 1583 1583 1583 1583 1585 1586 1587 1588 1588 1589 1589 1589 1590 1591 1592 1593 1594 1596 1596 1597 1597 1598 1599
1551 1554 1557 1560 1563 1565 1567 1569 1571 1574 1576 1577 1579 1580 1581 1582 1584 1585 1585 1586 1586 1585 1586 1586 1588 1589 1590 1591 1592 1592 1592 1592 1593 1593 1594 1595 1595 1597 1598 1598 1599 1599 1600
1551 1555 1558 1561 1564 1567 1569 1571 1573 1576 1578 1580 1581 1582 1584 1585 1586 1587 1588 1588 1589 1588 1589 1590 1590 1592 1593 1594 1595 1594 1595 1595 1595 1595 1596 1597 1598 1598 1599 1600 1601 1601 1602
1550 1554 1558 1562 1565 1568 1570 1572 1574 1577 1579 1581 1583 1585 1586 1588 1589 1589 1591 1591 1591 1592 1592 1593 1593 1594 1595 1597 1597 1597 1597 1597 1597 1598 1598 1599 1600 1601 1601 1602 1602 1603 1605
1549 1553 1557 1562 1565 1568 1571 1573 1576 1578 1580 1582 1584 1586 1588 1590 1591 1592 1593 1593 1593 1594 1594 1595 1595 1596 1597 1598 1599 1599 1599 1599 1600 1600 1600 1600 1601 1601 1602 1604 1605 1606 1605
1547 1552 1557 1561 1565 1569 1572 1574 1577 1580 1582 1584 1585 1587 1589 1591 1592 1593 1595 1595 1595 1596 1596 1597 1597 1598 1599 1600 1600 1601 1601 1601 1601 1602 1602 1601 1602 1603 1604 1606 1606 1606 1607
1547 1551 1556 1561 1565 1569 1572 1575 1577 1580 1583 1585 1586 1588 1589 1592 1593 1595 1596 1596 1596 1597 1597 1598 1599 1600 1601 1601 1602 1602 1602 1603 1603 1603 1603 1603 1604 1605 1606 1606 1606 1607 1608
1547 1551 1556 1560 1565 1569 1573 1576 1578 1581 1583 1585 1587 1588 1590 1592 1594 1596 1597 1597 1597 1598 1598 1598 1600 1601 1602 1603 1603 1604 1604 1605 1605 1605 1605 1605 1605 1606 1607 1608 1608 1608 1609
1547 1551 1555 1560 1564 1568 1572 1576 1579 1582 1584 1586 1588 1589 1591 1593 1595 1597 1598 1597 1598 1599 1599 1599 1601 1602 1604 1604 1605 1606 1606 1606 1607 1607 1607 1606 1607 1607 1607 1608 1609 1608 1609
1546 1550 1555 1559 1563 1568 1572 1575 1579 1582 1585 1587 1588 1590 1591 1593 1595 1597 1598 1598 1599 1600 1601 1602 1602 1603 1605 1606 1607 1607 1608 1608 1609 1609 1609 1608 1608 1609 1608 1608 1609 1609 1609
1543 1549 1553 1558 1562 1567 1571 1575 1579 1581 1584 1587 1589 1590 1592 1593 1595 1597 1598 1599 1600 1601 1603 1604 1604 1605 1606 1607 1608 1609 1609 1610 1610 1610 1610 1610 1609 1610 1609 1609 1610 1610 1610
1541 1546 1551 1556 1561 1566 1570 1574 1577 1580 1583 1585 1588 1590 1592 1593 1595 1597 1598 1599 1600 1602 1603 1604 1605 1606 1607 1608 1609 1610 1611 1611 1612 1612 1611 1611 1611 1611 1611 1610 1611 1610 1610
1539 1542 1547 1552 1558 1562 1566 1570 1574 1578 1581 1584 1587 1589 1592 1593 1595 1596 1598 1599 1600 1602 1603 1604 1605 1606 1607 1608 1610 1611 1611 1612 1612 1612 1612 1612 1613 1612 1612 1612 1612 1611 1611
1534 1538 1543 1548 1554 1559 1564 1568 1572 1576 1580 1583 1586 1588 1590 1592 1594 1596 1597 1599 1601 1602 1604 1604 1605 1606 1607 1608 1610 1611 1611 1613 1612 1612 1612 1613 1614 1614 1613 1612 1612 1612 1611
1528 1533 1539 1544 1550 1556 1561 1565 1569 1574 1578 1580 1583 1586 1589 1591 1593 1595 1597 1599 1600 1601 1603 1603 1604 1606 1607 1608 1609 1611 1611 1612 1612 1612 1613 1613 1614 1614 1614 1613 1612 1612 1612
1522 1530 1536 1541 1546 1552 1558 1562 1566 1570 1573 1576 1580 1584 1587 1590 1592 1594 1595 1597 1599 1601 1602 1603 1603 1605 1606 1607 1609 1610 1611 1611 1612 1612 1613 1613 1613 1614 1614 1614 1613 1612 1612
1519 1524 1531 1537 1543 1548 1553 1558 1563 1566 1570 1574 1578 1581 1584 1587 1590 1592 1594 1596 1597 1599 1601 1602 1603 1604 1605 1606 1608 1609 1611 1611 1612 1612 1612 1612 1612 1613 1613 1613 1612 1613 1613
1515 1520 1526 1531 1536 1542 1547 1553 1557 1561 1566 1570 1574 1577 1581 1584 1587 1590 1592 1594 1596 1597 1600 1601 1601 1602 1604 1605 1607 1608 1610 1611 1611 1611 1612 1612 1611 1612 1611 1611 1611 1612 1612
Wind_Speed
24 24 22 24 22 21 21 19 18 18 18 17 17 17 16 15 14 14 13 11 10 9 7 6 6 6 6 7 8 8 8 9 9 9 10 12 11 10 11 12 13 14 14
28 23 23 24 20 21 20 19 18 17 17 17 17 17 16 15 15 14 13 12 11 10 7 8 9 9 9 10 9 9 9 9 10 11 12 12 11 11 12 12 12 13 14
29 24 22 23 21 21 20 19 18 18 17 17 16 15 15 15 15 14 13 13 13 10 11 11 10 10 11 13 12 12 12 11 12 12 12 12 11 11 12 11 12 12 12
30 26 24 22 22 21 20 19 18 18 17 16 16 16 16 15 14 15 14 13 12 11 11 12 11 13 15 16 15 14 12 12 13 13 11 9 10 11 10 11 11 11 12
30 27 26 22 22 21 20 18 19 18 17 17 16 15 15 15 15 14 13 12 12 11 10 11 13 13 14 14 13 12 12 13 13 12 11 12 10 11 10 10 11 11 11
29 28 26 22 22 21 19 17 18 19 18 16 16 16 17 16 16 16 14 12 13 12 10 11 12 13 13 12 12 14 13 13 12 12 11 10 9 10 10 9 10 11 12
30 27 26 22 21 20 18 16 18 20 17 16 17 18 19 18 17 16 15 15 14 12 10 12 13 13 12 13 14 16 13 12 12 12 10 9 9 8 9 9 11 11 11
30 28 25 22 20 18 17 17 18 17 17 17 19 20 19 17 16 16 15 14 13 13 12 12 13 13 13 13 13 13 14 14 13 11 11 9 9 8 10 10 10 11 10
28 27 25 23 19 17 16 17 17 17 17 18 19 20 18 17 16 17 15 15 14 14 14 12 11 12 11 14 13 14 13 12 12 11 9 9 8 10 9 9 9 9 9
28 26 24 22 20 17 16 17 17 17 17 18 18 18 17 16 16 15 14 16 16 15 14 13 10 10 9 11 11 13 12 13 11 11 10 10 9 10 9 9 9 8 8
27 26 24 22 20 17 16 17 16 15 15 16 17 16 14 14 14 15 13 14 12 13 14 14 12 9 10 11 12 11 10 10 9 8 9 10 9 8 8 8 7 7 7
29 28 24 22 20 17 17 17 16 16 15 15 15 15 13 12 12 13 13 11 9 10 12 11 10 10 9 10 10 9 8 7 8 7 8 9 8 7 8 8 5 6 6
31 29 26 23 20 18 17 17 16 15 15 16 14 14 13 10 10 11 11 10 9 8 9 9 8 7 6 6 6 6 5 6 6 5 6 8 7 7 7 7 6 7 5
33 30 26 23 21 18 18 17 16 15 13 12 13 13 12 10 9 8 10 7 9 8 6 7 9 7 5 4 4 5 4 5 5 4 6 7 7 6 6 6 5 5 4
32 30 27 25 22 20 19 17 16 16 16 15 14 12 11 10 8 8 5 5 9 7 7 11 9 8 6 4 6 5 5 4 5 4 5 6 7 6 5 4 3 3 3
32 30 28 25 23 21 19 20 18 16 16 14 11 13 9 8 7 7 6 6 5 7 5 7 7 8 7 10 11 9 6 7 6 8 7 5 6 6 4 3 3 3 2
32 30 29 26 24 22 21 20 20 17 14 13 12 12 9 7 8 9 6 6 6 8 7 6 9 11 9 11 10 8 8 7 7 9 9 7 4 4 3 3 2 1 1
32 31 29 27 25 24 23 22 20 16 13 11 12 12 9 7 7 7 7 7 8 8 8 7 11 11 10 7 8 8 9 8 7 8 8 6 5 4 2 0 1 1 0
33 31 31 29 27 26 26 24 20 16 12 12 14 13 10 7 6 9 7 8 7 8 9 7 9 8 5 4 5 6 8 9 9 7 8 7 6 5 4 3 3 2 1
35 31 30 30 28 27 28 25 22 18 14 15 15 14 11 6 7 7 6 7 8 8 6 9 7 5 3 3 3 4 5 5 5 5 5 6 5 5 5 5 5 5 3
36 34 32 32 31 31 31 29 26 22 17 15 15 14 13 9 7 7 5 6 7 7 6 7 7 3 7 7 5 2 2 2 3 2 2 2 3 3 3 1 1 3 4
38 38 35 32 34 33 34 31 29 24 20 16 13 13 14 11 8 7 5 5 7 7 4 6 7 6 7 8 8 5 2 2 3 6 4 3 2 2 3 4 3 2 2
42 40 37 34 36 34 34 33 30 27 23 21 19 16 13 13 11 9 7 7 8 6 6 5 6 8 9 8 10 8 4 3 3 6 7 5 6 2 2 3 5 3 4
46 42 39 37 37 35 33 33 31 30 29 27 24 21 17 13 13 11 10 7 8 7 7 6 5 7 10 9 10 10 8 4 4 4 9 7 7 4 2 1 2 3 4
48 46 43 40 39 38 37 36 34 32 30 28 27 25 23 19 15 13 12 10 8 10 9 8 7 9 9 10 12 9 8 7 7 5 2 5 7 8 6 4 2 2 2
48 49 48 45 42 41 39 38 39 36 33 30 30 31 28 26 22 18 15 14 11 10 11 9 9 9 11 12 13 10 9 10 11 10 7 6 5 5 7 7 7 6 5
Wind_Direction
143 136 136 131 127 128 125 127 130 133 136 140 144 148 153 155 150 139 134 132 121 122 122 103 96 113 118 145 153 152 140 124 119 110 103 105 102 101 100 102 97 95 95
145 142 140 132 132 127 126 127 125 124 129 133 138 143 145 146 142 142 136 127 120 109 103 96 98 104 113 108 117 136 142 135 127 116 117 114 102 106 104 98 99 97 94
149 146 144 136 136 128 127 124 125 126 126 129 131 133 135 138 137 137 130 126 119 116 99 104 106 100 105 111 116 121 123 126 123 119 117 113 101 107 105 107 101 100 96
151 148 148 140 135 132 132 130 132 128 127 128 127 130 132 132 131 134 133 127 115 111 104 102 105 109 104 105 106 108 108 119 120 114 112 114 114 110 109 103 102 102 100
152 150 147 142 137 135 128 126 130 125 124 124 127 125 124 127 126 131 127 122 114 113 112 110 117 114 116 111 107 114 102 109 121 117 112 115 120 115 117 113 108 104 103
152 151 149 145 141 138 132 133 132 128 123 123 122 123 121 121 121 125 123 117 113 112 112 120 126 114 116 108 102 110 107 99 117 119 115 117 118 109 107 103 105 109 106
154 154 151 148 144 140 134 137 133 128 122 123 122 121 117 116 119 116 112 110 107 104 102 125 129 119 115 111 103 105 98 96 102 117 113 114 110 116 112 111 111 112 107
156 156 153 151 146 142 140 136 135 132 126 125 122 121 119 117 115 110 107 107 102 92 87 112 126 119 118 121 105 98 94 92 98 108 109 112 120 118 113 116 114 114 110
159 158 156 153 148 144 142 140 136 134 134 132 129 124 121 118 112 111 109 107 103 95 88 100 120 121 114 112 110 102 95 96 96 98 106 111 116 115 115 116 118 117 115
163 161 158 157 153 149 145 142 139 137 139 137 134 131 128 122 117 113 107 99 95 90 89 95 110 114 106 108 111 98 90 84 84 91 101 103 109 117 128 127 125 121 119
166 167 163 162 158 152 148 145 142 141 142 142 140 136 133 126 123 124 116 104 93 89 86 89 101 114 110 109 109 100 84 78 75 93 100 98 100 120 118 130 124 121 123
170 171 168 166 161 155 153 152 148 144 141 141 142 142 140 135 131 126 121 115 98 93 96 97 97 97 104 112 107 96 80 69 65 86 100 106 115 110 116 123 127 128 116
172 174 170 169 164 159 159 156 151 147 145 142 145 147 151 150 142 132 130 123 115 112 101 104 121 116 110 113 132 110 76 57 57 79 103 118 122 127 134 130 126 116 124
176 176 171 171 166 162 163 157 152 154 157 161 154 148 152 160 157 148 143 136 124 130 133 129 122 124 156 119 111 129 95 56 56 95 122 123 122 116 112 118 127 135 134
179 178 175 173 168 166 164 159 155 156 153 149 153 148 144 154 155 166 174 144 139 129 122 146 142 124 112 147 104 105 115 93 57 94 124 120 120 111 113 129 150 154 156
183 181 178 176 171 171 168 163 154 152 148 148 143 159 147 159 156 157 146 156 162 167 152 162 153 139 111 126 114 95 120 101 80 87 99 114 124 117 121 133 141 156 151
188 185 183 179 175 176 174 170 164 160 156 155 152 142 147 152 152 150 144 159 155 157 140 146 142 147 150 139 107 106 118 114 101 91 90 93 123 134 135 132 149 170 177
192 192 187 185 181 180 179 172 172 171 173 170 163 156 154 156 169 165 168 141 141 144 137 126 139 148 148 137 115 110 118 112 112 90 78 83 80 90 75 231 221 251 357
193 195 193 192 187 184 185 187 184 184 194 199 192 183 176 173 170 171 176 176 155 164 147 145 153 145 140 105 121 115 130 114 114 107 77 69 72 79 75 70 86 75 59
198 197 197 196 193 189 187 187 192 198 199 193 194 194 189 167 177 177 184 175 164 157 158 151 155 166 167 158 151 137 151 141 129 116 97 71 66 81 77 90 74 66 52
205 201 199 200 197 195 192 196 199 202 197 200 203 200 200 186 172 187 192 193 180 157 163 162 168 170 181 164 166 135 201 182 185 173 144 93 69 64 68 91 89 48 44
206 205 203 206 201 200 200 202 207 206 205 208 214 207 203 202 195 192 203 211 205 203 197 205 201 203 179 185 191 185 170 201 244 203 218 211 196 122 75 44 55 107 39
211 209 206 206 203 201 202 206 212 212 214 218 220 217 211 206 213 218 218 231 235 222 230 214 214 203 207 210 205 210 215 236 229 202 216 230 230 216 124 73 62 86 83
216 214 212 208 207 205 208 211 215 217 218 222 228 232 231 224 220 222 231 244 239 231 227 231 217 210 218 229 202 206 228 244 209 204 222 235 236 230 226 186 116 83 102
219 220 219 216 215 214 217 220 222 223 226 230 231 233 234 237 235 230 231 242 240 234 235 240 232 222 225 216 207 214 225 241 238 252 278 260 265 252 251 251 243 226 203
218 223 224 221 220 220 221 224 228 229 230 232 233 234 236 239 241 238 234 235 242 238 232 238 239 230 216 215 215 231 243 254 245 249 270 307 283 283 278 271 265 259 252